GW0403 Weather Reports


time (UTC)temp
F
wind
direction
speed
knots
gust
knots
rain 1hr
in
rain 24hr
in
rain mn
in
humidity
%
barometer
mb
20260507120042 48 0 0.0 0.9 0.00 0.00 0.00 85 1021.0
20260507114540 49 291 0.0 0.0 0.00 0.00 0.00 85 1021.1
20260507113048 49 0 0.0 0.9 0.00 0.00 0.00 85 1021.1
20260507111550 49 276 0.0 0.9 0.00 0.00 0.00 84 1021.0
20260507110058 50 0 0.0 0.0 0.00 0.00 0.00 86 1021.0
20260507104555 50 0 0.0 1.7 0.00 0.00 0.00 86 1021.1
20260507103112 50 0 0.0 0.9 0.00 0.00 0.00 85 1021.2
20260507101544 50 265 0.0 1.7 0.00 0.00 0.00 85 1021.1
20260507100103 51 0 0.0 0.9 0.00 0.00 0.00 86 1021.3
20260507094550 51 0 0.0 0.9 0.00 0.00 0.00 87 1021.3
20260507093043 51 0 0.0 0.9 0.00 0.00 0.00 87 1021.5
20260507091548 51 0 0.0 0.0 0.00 0.00 0.00 87 1021.8
20260507090056 51 0 0.0 0.0 0.00 0.00 0.00 87 1021.7
20260507084547 51 0 0.0 0.0 0.00 0.00 0.00 87 1021.7
20260507083051 52 0 0.0 0.0 0.00 0.00 0.00 87 1021.5
20260507081549 52 0 0.0 0.9 0.00 0.00 0.00 87 1021.7
20260507080055 52 0 0.0 0.0 0.00 0.00 0.00 87 1021.6
20260507074543 52 0 0.0 0.9 0.00 0.00 0.00 87 1021.6
20260507073047 52 0 0.0 0.0 0.00 0.00 0.00 87 1021.5
20260507071548 52 0 0.0 0.0 0.00 0.00 0.00 86 1021.5
20260507064553 52 0 0.0 0.9 0.00 0.00 0.00 86 1021.6
20260507063057 52 0 0.0 0.9 0.00 0.00 0.00 86 1021.6
20260507061547 52 0 0.0 0.0 0.00 0.00 0.00 85 1021.7
20260507060047 52 0 0.0 0.0 0.00 0.00 0.00 86 1021.7
20260507054606 52 0 0.0 0.0 0.00 0.00 0.00 86 1021.7
20260507053059 53 0 0.0 1.7 0.00 0.00 0.00 84 1021.8
20260507051550 53 0 0.0 1.7 0.00 0.00 0.00 84 1021.8
20260507050048 54 0 0.0 0.0 0.00 0.00 0.00 84 1021.7
20260507044554 54 0 0.0 0.9 0.00 0.00 0.00 84 1021.8
20260507043045 54 51 0.0 2.6 0.00 0.00 0.00 83 1021.7
20260507041555 55 0 0.0 0.9 0.00 0.00 0.00 83 1021.7
20260507040044 55 242 0.0 0.9 0.00 0.00 0.00 82 1021.6
20260507034543 55 0 0.0 3.5 0.00 0.00 0.00 82 1021.5
20260507033047 55 314 0.9 2.6 0.00 0.00 0.00 81 1021.5
20260507031543 56 0 0.0 1.7 0.00 0.00 0.00 82 1021.3
20260507030044 57 0 0.0 2.6 0.00 0.00 0.00 82 1021.0
20260507024551 58 274 0.0 0.9 0.00 0.00 0.00 81 1020.9
20260507023042 58 0 0.0 1.7 0.00 0.00 0.00 80 1020.8
20260507021601 59 148 0.0 2.6 0.00 0.00 0.00 80 1020.7
20260507020104 60 316 0.0 2.6 0.00 0.00 0.00 78 1020.8
20260507014611 61 263 0.9 2.6 0.00 0.00 0.00 77 1020.8
20260507013049 61 206 0.0 2.6 0.00 0.00 0.00 78 1020.9
20260507011558 61 347 0.9 2.6 0.00 0.00 0.00 77 1021.0
20260507010048 62 347 0.0 3.5 0.00 0.00 0.00 75 1021.0
20260507004543 63 0 0.9 2.6 0.00 0.00 0.00 75 1020.7
20260507003050 64 318 0.0 2.6 0.00 0.00 0.00 74 1020.8
20260507001559 65 326 0.9 6.1 0.00 0.00 0.00 74 1020.7
20260507000121 64 110 0.9 2.6 0.00 0.00 0.00 75 1020.7
20260506234607 64 321 0.9 2.6 0.00 0.00 0.00 75 1020.7
20260506233051 64 0 0.0 2.6 0.00 0.00 0.00 76 1020.7
20260506231549 64 274 0.0 1.7 0.00 0.00 0.00 75 1020.7
20260506224542 64 162 0.9 2.6 0.00 0.00 0.00 76 1020.9
20260506223045 63 285 0.9 1.7 0.00 0.00 0.00 78 1021.0
20260506221552 63 281 0.9 2.6 0.00 0.00 0.00 78 1021.3
20260506220047 64 0 0.0 0.9 0.00 0.00 0.00 77 1021.1
20260506214547 63 339 0.0 1.7 0.00 0.00 0.00 78 1021.2
20260506213053 63 226 0.0 1.7 0.00 0.00 0.00 80 1021.3
20260506211551 63 290 0.9 2.6 0.00 0.00 0.00 80 1021.2
20260506210051 62 288 0.0 3.5 0.00 0.00 0.00 81 1021.4
20260506204548 62 0 0.0 3.5 0.00 0.00 0.00 81 1021.4
20260506203043 62 175 0.9 2.6 0.00 0.00 0.00 80 1021.4
20260506201545 62 52 0.0 2.6 0.00 0.00 0.00 82 1021.3
20260506200045 60 295 0.9 2.6 0.00 0.00 0.00 84 1021.3
20260506194549 59 0 0.0 3.5 0.00 0.00 0.00 85 1021.7
20260506193052 59 278 0.0 2.6 0.00 0.00 0.00 84 1021.6
20260506191548 59 0 0.9 2.6 0.00 0.00 0.00 84 1021.8
20260506190047 59 286 0.9 4.3 0.00 0.00 0.00 84 1021.6
20260506184557 59 283 0.0 3.5 0.00 0.00 0.00 85 1021.5
20260506183100 60 0 0.0 0.9 0.00 0.00 0.00 84 1021.6
20260506181606 59 0 0.0 1.7 0.00 0.00 0.00 85 1021.4
20260506180052 59 0 0.0 2.6 0.00 0.00 0.00 85 1021.5
20260506174549 58 258 0.0 1.7 0.00 0.00 0.00 86 1021.4
20260506173120 58 325 0.0 2.6 0.00 0.00 0.00 85 1021.4
20260506171549 57 0 0.0 0.9 0.00 0.00 0.00 87 1021.1
20260506170107 56 0 0.0 2.6 0.00 0.00 0.00 89 1021.1
20260506164543 56 280 0.0 3.5 0.00 0.00 0.00 89 1021.1
20260506163053 56 291 0.0 3.5 0.00 0.00 0.00 89 1021.2
20260506161544 56 0 1.7 3.5 0.00 0.00 0.00 88 1021.2
20260506160047 56 0 0.0 1.7 0.00 0.00 0.00 89 1020.8
20260506154604 56 236 0.0 0.9 0.00 0.00 0.00 90 1020.4
20260506153047 54 0 0.0 0.9 0.00 0.00 0.00 92 1020.5
20260506151546 53 0 0.0 0.9 0.00 0.00 0.00 92 1021.0
20260506150044 53 0 0.0 1.7 0.00 0.00 0.00 93 1021.0
20260506144551 53 0 0.0 0.9 0.00 0.00 0.00 94 1021.0
20260506143048 53 268 0.0 0.9 0.00 0.00 0.00 94 1020.9
20260506141545 53 0 0.0 0.0 0.00 0.00 0.00 94 1020.5
20260506140051 53 0 0.0 0.9 0.00 0.00 0.00 94 1020.2
20260506134547 52 0 0.0 0.9 0.00 0.00 0.00 94 1020.2
20260506133055 52 0 0.0 0.0 0.00 0.00 0.00 94 1020.0
20260506131547 53 0 0.0 4.3 0.00 0.00 0.00 94 1019.9
20260506130047 53 0 0.0 0.9 0.00 0.00 0.00 94 1019.6
20260506124546 53 277 0.0 0.9 0.00 0.00 0.00 93 1019.5
20260506123044 53 0 0.0 0.9 0.00 0.00 0.00 94 1019.4
20260506121548 53 0 0.0 0.0 0.00 0.00 0.00 93 1019.5